Date,TemperatureHighF,TemperatureAvgF,TemperatureLowF,DewpointHighF,DewpointAvgF,DewpointLowF,HumidityHigh,HumidityAvg,HumidityLow,PressureMaxIn,PressureMinIn,WindSpeedMaxMPH,WindSpeedAvgMPH,GustSpeedMaxMPH,PrecipitationSumIn
2013-4-1,90,78,71,71,67,61,87,71,42,29.85,29.73,12,4,21,0.06
2013-4-2,87,75,67,68,66,63,93,73,50,29.87,29.78,8,3,14,0.00
2013-4-3,87,78,70,70,68,64,86,73,56,29.86,29.78,11,3,17,0.00
2013-4-4,87,76,68,74,70,65,94,81,63,29.84,29.69,19,4,32,1.77
2013-4-5,74,69,66,71,66,60,94,89,79,29.78,29.61,12,3,19,0.83
2013-4-6,82,70,60,67,61,57,93,75,56,29.88,29.71,13,6,20,0.00
2013-4-7,84,74,71,65,63,60,78,68,51,29.93,29.81,14,4,19,0.00
2013-4-8,86,75,61,69,62,58,91,65,40,29.93,29.84,10,2,17,0.00
2013-4-9,86,77,72,70,66,64,79,69,57,29.94,29.83,11,3,19,0.00
2013-4-10,88,79,73,73,70,66,83,74,59,29.90,29.78,11,3,18,0.00
2013-4-11,86,80,76,74,72,70,86,77,64,29.81,29.68,12,5,21,0.00
2013-4-12,89,81,77,78,74,72,91,80,65,29.74,29.64,13,5,23,0.40
2013-4-13,87,79,74,75,73,70,90,81,63,29.76,29.66,9,3,15,0.01
2013-4-14,89,81,72,76,74,70,92,79,61,29.76,29.67,12,3,21,0.00
2013-4-15,95,80,71,78,73,68,93,80,54,29.85,29.71,17,3,26,0.28
2013-4-16,89,80,71,77,73,68,94,80,59,29.91,29.81,12,3,20,0.00
2013-4-17,87,80,75,72,70,68,85,72,57,29.91,29.81,11,4,17,0.00
2013-4-18,89,82,75,75,71,69,83,71,58,29.85,29.77,11,3,21,0.00
2013-4-19,90,83,78,75,73,70,88,73,55,29.84,29.75,12,5,24,0.01
2013-4-20,95,79,71,78,74,69,95,83,57,29.87,29.73,23,2,30,1.61
2013-4-21,90,79,72,75,72,68,94,81,54,29.88,29.76,11,3,19,0.12
2013-4-22,90,76,70,73,70,67,95,84,58,29.84,29.71,14,2,21,0.87
2013-4-23,85,76,68,71,66,61,94,73,54,29.88,29.73,17,6,26,0.01
2013-4-24,88,79,70,67,64,60,72,60,48,29.93,29.82,11,4,15,0.00
2013-4-25,88,78,71,64,62,60,71,59,44,29.99,29.86,11,3,17,0.00
2013-4-26,86,77,68,68,64,60,78,64,52,30.01,29.90,12,4,20,0.00
2013-4-27,86,78,72,68,64,60,80,63,48,30.00,29.87,11,5,19,0.00
2013-4-28,87,79,73,66,64,61,75,61,48,29.91,29.78,10,4,17,0.00
2013-4-29,88,79,75,74,68,63,82,70,55,29.83,29.73,10,3,18,0.00
2013-4-30,86,76,68,75,70,66,94,82,62,29.79,29.71,17,2,29,1.54